Dewpoint
20 20 20 19 18 21 19 19 18 19 18 17 16 16 16 19 20 20 20 19 20 19 20 20 20 21 23 20 21 19 18 20 19 20 21 20 20 22 23 21 23 19
21 20 19 19 20 20 19 20 19 18 18 18 18 18 19 19 20 20 20 20 19 20 20 20 20 19 19 18 20 19 17 18 20 22 20 21 18 19 19 21 20 20
20 22 21 20 20 21 21 21 21 19 18 19 19 18 20 20 20 19 19 19 19 18 19 19 19 18 19 19 20 18 17 19 18 19 19 19 18 18 18 19 18 20
21 21 21 21 21 20 20 20 20 19 20 19 19 20 19 22 20 19 19 19 18 18 19 19 19 18 19 19 19 16 18 17 18 19 18 16 17 17 17 17 17 17
20 20 20 20 20 20 21 21 20 20 19 20 21 19 17 19 19 17 17 17 17 17 16 17 17 17 17 16 17 15 14 14 16 17 15 15 16 16 17 16 16 16
20 19 19 20 20 20 19 20 20 20 20 19 20 17 18 18 16 16 16 14 13 13 13 14 14 14 15 15 14 13 10 10 10 13 11 10 13 14 17 17 15 13
19 19 19 19 20 21 19 19 19 19 18 18 17 15 14 14 13 13 12 13 12 12 11 12 12 12 12 11 9 10 8 9 10 9 8 8 9 10 13 13 10 10
15 17 18 18 19 19 18 18 17 17 16 13 13 14 13 13 12 13 11 10 10 9 10 9 10 11 9 7 6 6 6 12 11 7 7 7 8 7 8 12 10 10
13 13 13 12 12 12 12 13 13 13 11 9 8 9 11 9 9 9 8 7 6 7 7 7 8 6 6 5 5 5 4 5 7 6 7 7 8 8 8 9 9 9
12 12 12 12 12 12 11 11 11 9 9 8 8 7 7 8 9 6 5 5 4 5 5 5 5 4 4 4 4 4 3 4 4 5 6 7 8 8 9 9 9 9
12 12 12 12 12 12 11 10 8 7 6 5 4 6 6 4 4 4 4 5 4 5 4 4 3 3 2 2 1 2 2 3 4 7 8 9 9 9 12 10 9 9
12 12 12 12 12 12 11 9 7 5 4 5 4 6 3 3 3 2 4 2 3 4 3 2 2 1 1 0 0 0 2 4 7 9 10 11 11 11 11 10 10 9
12 13 13 13 13 12 10 7 5 4 4 4 4 3 2 3 2 2 2 3 2 2 1 1 0 -0 -1 -1 -1 0 4 8 11 12 12 12 12 11 11 11 10 10
13 13 13 13 12 10 8 5 4 3 3 3 4 2 2 3 1 2 2 2 1 0 0 0 -1 -2 -2 -2 0 6 11 13 14 14 13 13 13 12 12 11 10 9
13 13 14 14 11 9 7 5 4 3 4 4 3 2 3 2 1 2 2 1 0 0 -0 -1 -1 -2 -2 0 9 13 15 16 15 15 14 14 14 13 12 11 10 9
14 14 13 12 10 7 5 4 3 4 4 4 4 3 3 2 2 2 1 0 1 -0 -1 -1 -1 -2 3 12 19 18 17 17 16 16 16 15 14 13 12 10 9 9
14 14 12 12 9 7 11 8 5 7 9 7 5 4 4 3 3 1 0 1 0 -0 -1 -1 -1 -1 9 17 20 21 19 18 18 18 17 15 14 12 11 11 9 8
15 14 13 12 10 12 11 11 10 9 8 8 7 6 4 4 2 1 -0 -0 -0 -1 -1 -1 -1 6 13 17 19 20 21 19 19 18 18 16 15 13 10 9 8 6
15 14 15 14 13 11 11 10 10 10 8 8 7 6 5 4 2 2 1 0 -1 -1 -1 -1 -1 6 12 16 18 20 21 20 19 18 18 17 14 11 9 6 6 5
15 17 15 14 11 10 9 10 9 9 8 6 6 5 6 5 4 3 3 0 -1 -1 -1 -1 -1 5 12 17 19 20 21 21 19 18 17 15 11 9 7 6 5 5
15 15 14 11 10 10 9 9 7 8 7 6 6 7 7 6 5 5 4 3 3 2 -1 -0 -1 8 14 17 18 19 21 21 18 17 15 12 10 9 8 7 6 5
15 15 13 11 8 8 9 9 8 8 7 6 4 4 4 3 4 4 4 4 3 2 0 1 -1 9 13 16 17 19 20 18 15 14 13 13 12 9 8 7 7 6
13 13 11 10 9 9 9 9 9 7 5 4 4 5 5 4 4 3 3 2 2 2 1 1 2 5 11 15 17 18 18 15 15 14 13 13 10 10 9 8 8 7
12 14 13 11 10 10 9 8 7 6 5 3 4 4 5 4 2 2 1 1 1 1 1 0 2 5 11 15 16 17 17 15 14 13 13 12 13 11 10 9 9 14
12 12 12 11 10 10 8 9 7 5 4 3 2 3 3 2 0 0 1 0 0 0 2 3 3 5 9 12 15 16 16 15 14 13 12 12 12 12 10 10 11 14
11 12 11 11 10 9 6 5 5 2 2 2 1 0 -0 0 -1 -1 -0 -1 -1 -1 -0 0 -0 0 3 11 14 16 17 15 14 13 12 12 12 12 12 14 14 13